Total_Precipitation_Accumulation
0.01 0.01 0.01 0.01 0.01 0.01 0.02 0.03 0.05 0.08 0.09 0.09 0.11 0.11 0.12 0.11 0.09 0.10 0.09 0.10 0.10 0.09 0.10 0.17 0.33 0.65 0.95 1.03 1.10 1.03 0.92 0.86 0.73 0.59 0.57 0.70 0.78 0.76 0.70 0.75 0.68 0.52 0.45
0.02 0.01 0.01 0.01 0.00 0.00 0.00 0.00 0.01 0.02 0.02 0.03 0.04 0.05 0.07 0.08 0.08 0.11 0.12 0.14 0.13 0.11 0.10 0.11 0.19 0.38 0.71 0.96 1.13 1.32 1.18 1.04 0.99 0.82 0.63 0.62 0.71 0.76 0.76 0.75 0.79 0.70 0.55
0.02 0.01 0.01 0.01 0.01 0.00 0.00 0.00 0.00 0.01 0.01 0.01 0.01 0.01 0.02 0.03 0.05 0.07 0.09 0.13 0.17 0.15 0.13 0.11 0.13 0.21 0.39 0.68 0.96 1.29 1.48 1.26 1.19 1.14 0.92 0.68 0.65 0.71 0.76 0.81 0.83 0.88 0.75
0.02 0.01 0.02 0.01 0.01 0.01 0.01 0.01 0.01 0.01 0.01 0.01 0.01 0.00 0.00 0.00 0.01 0.02 0.05 0.08 0.14 0.17 0.15 0.15 0.14 0.15 0.24 0.41 0.67 1.02 1.60 1.60 1.43 1.38 1.35 1.05 0.77 0.72 0.73 0.79 0.86 0.90 0.97
0.01 0.02 0.02 0.02 0.01 0.01 0.01 0.01 0.01 0.01 0.01 0.01 0.01 0.00 0.00 0.00 0.00 0.00 0.01 0.03 0.06 0.13 0.17 0.17 0.18 0.17 0.17 0.23 0.42 0.74 1.37 1.74 1.75 1.72 1.69 1.54 1.16 0.88 0.79 0.79 0.87 0.92 1.01
0.01 0.01 0.02 0.01 0.01 0.01 0.01 0.01 0.01 0.01 0.01 0.01 0.01 0.01 0.00 0.00 0.00 0.00 0.00 0.01 0.02 0.04 0.11 0.15 0.18 0.18 0.16 0.16 0.22 0.39 0.80 1.28 1.59 1.77 1.83 1.91 1.73 1.27 0.96 0.86 0.86 0.96 1.02
0.00 0.01 0.01 0.01 0.01 0.01 0.01 0.01 0.01 0.02 0.01 0.02 0.03 0.02 0.00 0.00 0.00 0.00 0.00 0.00 0.01 0.01 0.04 0.08 0.15 0.20 0.19 0.17 0.16 0.19 0.36 0.73 1.13 1.42 1.61 1.80 2.05 1.86 1.37 1.06 0.96 0.98 1.09
0.00 0.01 0.01 0.01 0.02 0.02 0.02 0.02 0.02 0.03 0.02 0.02 0.05 0.10 0.05 0.01 0.00 0.00 0.00 0.00 0.00 0.01 0.02 0.04 0.08 0.15 0.20 0.20 0.14 0.13 0.17 0.37 0.75 1.16 1.43 1.61 1.89 2.16 1.94 1.45 1.18 1.11 1.18
0.00 0.00 0.00 0.01 0.01 0.01 0.01 0.01 0.01 0.03 0.04 0.02 0.04 0.19 0.29 0.16 0.05 0.01 0.00 0.01 0.01 0.01 0.01 0.02 0.05 0.08 0.14 0.21 0.19 0.13 0.11 0.18 0.40 0.78 1.25 1.57 1.79 2.08 2.25 1.99 1.55 1.31 1.29
0.00 0.00 0.01 0.01 0.01 0.01 0.01 0.01 0.01 0.03 0.07 0.08 0.05 0.08 0.19 0.25 0.29 0.13 0.02 0.02 0.03 0.03 0.02 0.02 0.03 0.05 0.08 0.15 0.21 0.21 0.16 0.15 0.24 0.50 0.90 1.46 1.86 2.10 2.43 2.38 2.06 1.65 1.45
0.00 0.00 0.01 0.00 0.01 0.01 0.01 0.01 0.02 0.03 0.07 0.12 0.13 0.11 0.09 0.10 0.15 0.25 0.12 0.03 0.04 0.04 0.04 0.03 0.03 0.04 0.05 0.10 0.15 0.20 0.24 0.25 0.33 0.45 0.68 1.14 1.86 2.20 2.60 2.80 2.48 1.99 1.65
0.01 0.01 0.00 0.00 0.00 0.01 0.01 0.02 0.03 0.04 0.06 0.09 0.11 0.13 0.17 0.19 0.16 0.21 0.20 0.07 0.03 0.03 0.04 0.04 0.05 0.07 0.09 0.10 0.12 0.21 0.28 0.33 0.43 0.48 0.52 0.80 1.37 2.06 2.49 2.83 2.72 2.22 1.81
0.02 0.01 0.00 0.00 0.01 0.01 0.02 0.03 0.05 0.05 0.06 0.09 0.11 0.12 0.14 0.16 0.17 0.22 0.27 0.16 0.07 0.02 0.02 0.03 0.05 0.08 0.11 0.13 0.14 0.19 0.24 0.30 0.37 0.42 0.42 0.51 0.81 1.39 2.08 2.62 2.91 2.66 2.15
0.02 0.01 0.00 0.00 0.01 0.01 0.02 0.04 0.05 0.07 0.08 0.09 0.10 0.12 0.16 0.13 0.16 0.22 0.29 0.33 0.26 0.09 0.03 0.02 0.02 0.04 0.09 0.14 0.14 0.16 0.15 0.21 0.27 0.32 0.36 0.39 0.52 0.83 1.37 2.01 2.76 3.21 2.90
0.01 0.00 0.00 0.00 0.01 0.02 0.04 0.05 0.07 0.08 0.09 0.12 0.14 0.16 0.19 0.17 0.17 0.20 0.24 0.35 0.52 0.38 0.10 0.02 0.02 0.03 0.08 0.13 0.14 0.12 0.11 0.14 0.19 0.24 0.28 0.33 0.40 0.57 0.88 1.36 1.92 2.81 3.39
0.00 0.00 0.00 0.01 0.03 0.04 0.05 0.07 0.08 0.09 0.12 0.14 0.18 0.20 0.21 0.21 0.24 0.26 0.28 0.29 0.38 0.47 0.28 0.03 0.02 0.04 0.09 0.16 0.17 0.14 0.13 0.14 0.16 0.18 0.20 0.22 0.28 0.39 0.61 0.92 1.31 1.87 2.73
0.00 0.00 0.01 0.03 0.06 0.07 0.08 0.10 0.10 0.12 0.15 0.15 0.18 0.22 0.24 0.26 0.33 0.35 0.39 0.38 0.34 0.38 0.38 0.09 0.02 0.04 0.12 0.20 0.19 0.14 0.14 0.13 0.11 0.13 0.16 0.20 0.23 0.31 0.46 0.66 0.91 1.25 1.85
0.00 0.00 0.02 0.05 0.09 0.11 0.11 0.14 0.15 0.15 0.18 0.19 0.21 0.25 0.28 0.31 0.36 0.41 0.48 0.49 0.41 0.36 0.41 0.25 0.06 0.05 0.12 0.23 0.27 0.21 0.18 0.16 0.11 0.12 0.16 0.20 0.26 0.32 0.40 0.52 0.69 0.92 1.26
0.00 0.00 0.02 0.07 0.15 0.21 0.19 0.16 0.20 0.21 0.20 0.22 0.25 0.31 0.35 0.39 0.38 0.41 0.51 0.56 0.50 0.42 0.42 0.38 0.18 0.08 0.11 0.23 0.33 0.31 0.26 0.24 0.18 0.15 0.16 0.19 0.24 0.30 0.35 0.43 0.56 0.71 0.89
0.00 0.01 0.02 0.06 0.17 0.30 0.33 0.34 0.37 0.32 0.26 0.21 0.19 0.24 0.36 0.50 0.55 0.59 0.60 0.59 0.60 0.61 0.56 0.51 0.35 0.20 0.18 0.25 0.41 0.46 0.39 0.34 0.29 0.23 0.20 0.19 0.21 0.27 0.31 0.34 0.37 0.48 0.66
0.00 0.01 0.01 0.03 0.14 0.40 0.65 0.82 0.74 0.47 0.31 0.23 0.18 0.20 0.31 0.52 0.69 0.88 0.95 0.84 0.83 0.89 0.84 0.78 0.65 0.48 0.36 0.39 0.48 0.52 0.58 0.48 0.43 0.35 0.26 0.20 0.20 0.20 0.20 0.26 0.31 0.36 0.46
0.01 0.01 0.01 0.02 0.08 0.36 0.73 0.96 0.70 0.37 0.26 0.22 0.21 0.20 0.28 0.49 0.63 0.73 0.86 0.89 0.96 1.11 1.17 1.10 0.95 0.77 0.54 0.45 0.48 0.60 0.72 0.77 0.65 0.49 0.37 0.29 0.27 0.25 0.21 0.20 0.25 0.29 0.36
0.01 0.01 0.01 0.02 0.03 0.19 0.56 0.83 0.58 0.30 0.22 0.20 0.20 0.19 0.23 0.35 0.47 0.56 0.60 0.62 0.69 0.85 1.09 1.22 1.17 0.87 0.68 0.55 0.64 0.75 0.76 0.83 0.74 0.70 0.66 0.57 0.38 0.32 0.26 0.28 0.31 0.30 0.35
0.01 0.01 0.02 0.02 0.02 0.09 0.43 0.72 0.53 0.26 0.18 0.17 0.19 0.16 0.14 0.22 0.35 0.52 0.61 0.58 0.54 0.62 0.87 1.11 1.28 1.10 0.90 0.86 1.00 1.13 1.12 1.07 0.92 0.90 0.89 0.93 0.67 0.47 0.38 0.35 0.35 0.31 0.33
0.02 0.02 0.02 0.02 0.02 0.04 0.28 0.68 0.55 0.25 0.17 0.15 0.17 0.15 0.12 0.13 0.28 0.48 0.52 0.47 0.41 0.48 0.60 0.83 0.98 1.00 0.98 1.08 1.29 1.58 1.64 1.52 1.27 1.08 1.01 1.00 0.98 0.85 0.75 0.61 0.50 0.42 0.36
0.02 0.02 0.02 0.02 0.02 0.02 0.15 0.56 0.63 0.28 0.17 0.13 0.14 0.14 0.16 0.21 0.31 0.40 0.40 0.43 0.52 0.48 0.45 0.48 0.51 0.54 0.60 0.71 1.02 1.44 1.66 1.63 1.41 1.34 1.22 1.07 1.13 1.16 1.30 1.09 0.78 0.56 0.44